Content
SEND FEEDBACK

Daily
Averages
Monthly
Summary
Norway

KONGSVINGER, NORWAY


Home > Europe > Norway
Elevation: 669 feet     Latitude: 60 12N     Longitude: 011 05E

WEATHER
 
SELECT A DAY
Number of Records: 295,257;   Date Range: 7/1/96 - 11/21/14
 
SHARE

PRINT THIS DATA

[ ← Previous Day ]
WEATHER ALMANAC - JANUARY 19, 2013
[ Next Day → ]
[ °C ]   °F
Weather ElementAverageHighLow
Temperature2.8 °F10.4 °F (1:53 pm)-5.8 °F (4:11 am)
Dewpoint-0.4 °F8.6 °F (2:14 pm)-9.4 °F (4:11 am)
Humidity85.9 %92 % (1:12 pm)76 % (7:00 am)
Barometer29.93 in30.06 in (12:42 am)29.80 in (9:10 pm)
Wind Speed1 mph4.6 mph (8:11 am)
Weather ElementAverage
Visibility6.1 mi
Wind DirectionENE (55.4 °)

Weather ElementTotal
Precipitation---
Heating Degree Days62.7 (Base 65)
Averaged from 51 records on January 19, 2013
WEATHER CONDITIONS BREAKOUT
WIND DIRECTION BREAKOUT
WEATHER BY HOUR - JANUARY 19, 2013
[ °C ]   °F
Local TimeTemperatureDewpointHumidityBarometerVisibilityWind DirectionWind SpeedGust SpeedPrecipitationEventsConditions
12:42 AM-2.2 °F-5.8 °F85 %30.06 in6.2 miNorth (350°)1.2 mphScattered Clouds
1:00 AM0.0 °F-2.0 °F84 %19.0 miNorth (10°)2.2 mphPartly Cloudy
1:13 AM-2.2 °F-5.8 °F85 %30.06 in6.2 miNorth (350°)1.2 mphScattered Clouds
1:48 AM-4.0 °F-7.6 °F85 %30.06 in6.2 miVariable2.3 mphScattered Clouds
2:23 AM-2.2 °F-5.8 °F85 %30.06 in3.7 miCalmFogFog
2:46 AM-4.0 °F-7.6 °F85 %30.04 in6.2 miCalmFogMostly Cloudy
3:14 AM-4.0 °F-7.6 °F85 %30.04 in5.0 miNNW (340°)1.2 mphMostly Cloudy
3:42 AM-4.0 °F-7.6 °F85 %30.04 in5.0 miCalmScattered Clouds
4:11 AM-5.8 °F-9.4 °F84 %30.04 in6.2 miNorth (360°)2.3 mphFogPatches of Fog
4:41 AM-5.8 °F-9.4 °F84 %30.01 in5.6 miNNW (330°)2.3 mphMostly Cloudy
5:11 AM-5.8 °F-9.4 °F84 %30.01 in5.0 miVariable1.2 mphSnowLight Snow
5:41 AM-5.8 °F-9.4 °F84 %30.01 in6.2 miNorth (350°)2.3 mphScattered Clouds
6:12 AM-5.8 °F-9.4 °F84 %29.98 in6.2 miCalmSnowLight Snow
6:41 AM-4.0 °F-7.6 °F85 %29.98 in5.6 miVariable2.3 mphMostly Cloudy
7:00 AM-1.0 °F-5.0 °F76 %6.0 miCalmSnowLight Snow
7:12 AM-4.0 °F-7.6 °F85 %29.98 in6.2 miVariable1.2 mphMostly Cloudy
7:41 AM-4.0 °F-7.6 °F85 %29.98 in6.2 miVariable1.2 mphMostly Cloudy
8:11 AM-4.0 °F-7.6 °F85 %29.98 in6.2 miNW (310°)4.6 mphMostly Cloudy
8:41 AM-4.0 °F-7.6 °F85 %29.98 in6.2 miNNE (30°)3.5 mphMostly Cloudy
9:11 AM-2.2 °F-5.8 °F85 %29.98 in6.2 miVariable1.2 mphMostly Cloudy
9:43 AM1.4 °F-2.2 °F85 %29.98 in6.2 miCalmMostly Cloudy
10:13 AM-0.4 °F-4.0 °F85 %29.95 in5.6 miCalmMostly Cloudy
10:42 AM1.4 °F-2.2 °F85 %29.95 in5.0 miVariable1.2 mphMostly Cloudy
11:13 AM5.0 °F1.4 °F85 %29.95 in6.2 miVariable2.3 mphMostly Cloudy
11:42 AM6.8 °F3.2 °F85 %29.95 in5.6 miCalmMostly Cloudy
12:15 PM8.6 °F5.0 °F85 %29.92 in6.2 miVariable1.2 mphMostly Cloudy
12:41 PM8.6 °F5.0 °F85 %29.92 in6.2 miCalmFogPatches of Fog
1:00 PM10.0 °F7.0 °F84 %6.0 miNNE (20°)2.2 mphFogPatches of Fog
1:12 PM8.6 °F6.8 °F92 %29.92 in6.2 miCalmMostly Cloudy
1:53 PM10.4 °F6.8 °F85 %29.92 in6.2 miVariable1.2 mphMostly Cloudy
2:14 PM10.4 °F8.6 °F92 %29.89 in5.0 miCalmFogPatches of Fog
2:43 PM10.4 °F6.8 °F85 %29.89 in5.0 miVariable1.2 mphSnowLight Snow
3:11 PM10.4 °F6.8 °F85 %29.89 in5.0 miCalmSnowLight Snow
3:41 PM10.4 °F6.8 °F85 %29.86 in6.2 miWNW (300°)1.2 mphMostly Cloudy
4:12 PM10.4 °F8.6 °F92 %29.86 in6.2 miCalmMostly Cloudy
4:43 PM8.6 °F6.8 °F92 %29.86 in5.6 miCalmSnowLight Snow
5:12 PM8.6 °F5.0 °F85 %29.86 in5.0 miCalmSnowLight Snow
5:42 PM6.8 °F5.0 °F92 %29.86 in5.6 miCalmSnowLight Snow
6:12 PM6.8 °F5.0 °F92 %29.83 in5.6 miVariable1.2 mphSnowLight Snow
6:43 PM5.0 °F3.2 °F92 %29.83 in5.6 miCalmPartly Cloudy
7:00 PM7.0 °F4.0 °F82 %6.0 miNNE (20°)2.2 mphPartly Cloudy
7:11 PM3.2 °F-0.4 °F85 %29.83 inVariable2.3 mphClear
7:40 PM5.0 °F1.4 °F85 %29.83 inCalmClear
8:11 PM6.8 °F3.2 °F85 %29.83 in6.2 miCalmFogPatches of Fog
8:42 PM8.6 °F5.0 °F85 %29.83 inCalmClear
9:10 PM8.6 °F5.0 °F85 %29.80 inVariable1.2 mphClear
9:40 PM8.6 °F5.0 °F85 %29.80 inCalmClear
10:11 PM6.8 °F5.0 °F92 %29.80 inVariable1.2 mphClear
10:40 PM6.8 °F3.2 °F85 %29.80 inCalmClear
11:10 PM5.0 °F1.4 °F85 %29.80 inCalmClear
11:40 PM5.0 °F3.2 °F92 %29.80 inCalmClear
Hourly data recorded from ENGM, located miles away from Kongsvinger, Norway







STORIES FROM OUR PARTNERS